Location: Unspecified
(42.9300°N, 71.1866°W)
Time: 04:39:56
(UTC-04:00)

ISS - Visible Passes

Search period start: 21 October 2017 00:00
Search period end: 31 October 2017 00:00
Orbit: 401 x 408 km, 51.6° (Epoch: 21 October)

Date Brightness Start Highest point End Pass type
(mag) Time Alt. Az. Time Alt. Az. Time Alt. Az.
27 Oct -0.6 06:32:08 10° SSE 06:33:40 13° SE 06:35:12 10° ESE visible
29 Oct -1.8 06:22:10 10° SSW 06:25:01 29° SE 06:27:53 10° ENE visible
30 Oct -0.9 05:30:43 10° S 05:32:46 16° SE 05:34:49 10° E visible
